| time (UTC) | temp C | wind direction | speed KPH | gust KPH | rain 1hr cm | rain 24hr cm | rain mn cm | humidity % | barometer mb |
| 20260503181940 | 23 | 217 | 3.2 | 12.9 | 0.00 | 0.05 | 0.03 | 100 | 1011.1 |
| 20260503181200 | 23 | 243 | 3.2 | 12.9 | 0.00 | 0.05 | 0.03 | 100 | 1011.1 |
| 20260503181000 | 22 | 174 | 1.6 | 9.7 | 0.03 | 0.05 | 0.03 | 100 | 1011.1 |
| 20260503180200 | 22 | 270 | 1.6 | 9.7 | 0.03 | 0.05 | 0.03 | 100 | 1011.1 |
| 20260503175936 | 22 | 285 | 3.2 | 9.7 | 0.03 | 0.05 | 0.03 | 100 | 1011.1 |
| 20260503175158 | 21 | 251 | 3.2 | 11.3 | 0.03 | 0.05 | 0.03 | 100 | 1011.1 |
| 20260503174659 | 21 | 238 | 1.6 | 11.3 | 0.03 | 0.05 | 0.03 | 100 | 1011.2 |
| 20260503174158 | 21 | 271 | 3.2 | 8.0 | 0.03 | 0.05 | 0.03 | 100 | 1011.2 |
| 20260503173701 | 21 | 349 | 3.2 | 8.0 | 0.03 | 0.05 | 0.03 | 100 | 1011.2 |
| 20260503173155 | 21 | 232 | 1.6 | 8.0 | 0.03 | 0.05 | 0.03 | 100 | 1011.2 |
| 20260503172655 | 20 | 209 | 1.6 | 8.0 | 0.03 | 0.05 | 0.03 | 100 | 1011.2 |
| 20260503172153 | 20 | 261 | 1.6 | 6.4 | 0.03 | 0.05 | 0.03 | 100 | 1011.1 |
| 20260503171652 | 20 | 333 | 1.6 | 8.0 | 0.03 | 0.05 | 0.03 | 100 | 1011.2 |
| 20260503171150 | 20 | 231 | 0.0 | 8.0 | 0.03 | 0.05 | 0.03 | 100 | 1011.2 |
| 20260503170650 | 20 | 267 | 0.0 | 0.0 | 0.00 | 0.03 | 0.00 | 100 | 1011.2 |
| 20260503170151 | 18 | 244 | 0.0 | 0.0 | 0.00 | 0.03 | 0.00 | 100 | 1011.1 |
| 20260503160147 | 13 | 239 | 0.0 | 0.0 | 0.00 | 0.03 | 0.00 | 100 | 1011.2 |
| 20260503150646 | 9 | 239 | 0.0 | 0.0 | 0.00 | 0.03 | 0.00 | 100 | 1011.5 |
| 20260503150145 | 9 | 239 | 0.0 | 0.0 | 0.00 | 0.03 | 0.00 | 100 | 1011.7 |
| 20260503140112 | 7 | 239 | 0.0 | 0.0 | 0.00 | 0.03 | 0.00 | 100 | 1011.7 |
| 20260503131102 | 7 | 239 | 0.0 | 0.0 | 0.00 | 0.03 | 0.00 | 100 | 1011.7 |
| 20260503130554 | 7 | 239 | 0.0 | 0.0 | 0.00 | 0.03 | 0.00 | 100 | 1011.7 |
| 20260503110339 | 7 | 239 | 0.0 | 0.0 | 0.00 | 0.03 | 0.00 | 100 | 1012.1 |
| 20260503110114 | 8 | 239 | 0.0 | 0.0 | 0.00 | 0.03 | 0.00 | 100 | 1012.1 |
| 20260503100228 | 8 | 239 | 0.0 | 0.0 | 0.00 | 0.03 | 0.00 | 100 | 1012.4 |
| 20260503090138 | 8 | 239 | 0.0 | 0.0 | 0.00 | 0.03 | 0.00 | 100 | 1012.9 |
| 20260503081627 | 9 | 239 | 0.0 | 0.0 | 0.00 | 0.03 | 0.00 | 100 | 1013.3 |
| 20260503081124 | 9 | 239 | 0.0 | 0.0 | 0.00 | 0.03 | 0.00 | 100 | 1013.4 |
| 20260503080623 | 9 | 239 | 0.0 | 0.0 | 0.00 | 0.03 | 0.00 | 100 | 1013.4 |
| 20260503080125 | 10 | 239 | 0.0 | 0.0 | 0.00 | 0.03 | 0.00 | 100 | 1013.4 |
| 20260503072617 | 10 | 239 | 0.0 | 0.0 | 0.00 | 0.03 | 0.00 | 100 | 1013.7 |
| 20260503072408 | 10 | 239 | 0.0 | 0.0 | 0.00 | 0.03 | 0.00 | 100 | 1013.8 |
| 20260503071622 | 10 | 239 | 0.0 | 0.0 | 0.00 | 0.03 | 0.00 | 100 | 1013.8 |
| 20260503071127 | 10 | 239 | 0.0 | 0.0 | 0.00 | 0.03 | 0.00 | 100 | 1013.7 |
| 20260503070617 | 10 | 239 | 0.0 | 0.0 | 0.00 | 0.03 | 0.00 | 100 | 1013.8 |
| 20260503070128 | 10 | 239 | 0.0 | 0.0 | 0.00 | 0.03 | 0.00 | 100 | 1013.8 |
| 20260503060257 | 12 | 239 | 0.0 | 0.0 | 0.00 | 0.03 | 0.03 | 100 | 1013.9 |
| 20260503054953 | 12 | 239 | 0.0 | 0.0 | 0.00 | 0.03 | 0.03 | 100 | 1013.8 |
| 20260503054725 | 12 | 239 | 0.0 | 0.0 | 0.00 | 0.03 | 0.03 | 100 | 1013.8 |
| 20260503054225 | 12 | 239 | 0.0 | 0.0 | 0.00 | 0.03 | 0.03 | 100 | 1013.9 |
| 20260503053437 | 12 | 239 | 0.0 | 0.0 | 0.00 | 0.03 | 0.03 | 100 | 1013.9 |
| 20260503052930 | 12 | 239 | 0.0 | 0.0 | 0.00 | 0.03 | 0.03 | 100 | 1013.8 |
| 20260503052433 | 12 | 239 | 0.0 | 0.0 | 0.00 | 0.03 | 0.03 | 100 | 1013.8 |
| 20260503051917 | 12 | 239 | 0.0 | 0.0 | 0.00 | 0.03 | 0.03 | 100 | 1013.8 |
| 20260503051411 | 12 | 239 | 0.0 | 0.0 | 0.00 | 0.03 | 0.03 | 100 | 1013.9 |
| 20260503050905 | 12 | 239 | 0.0 | 0.0 | 0.00 | 0.03 | 0.03 | 100 | 1013.9 |
| 20260503050400 | 13 | 239 | 0.0 | 0.0 | 0.00 | 0.03 | 0.03 | 100 | 1013.8 |
| 20260503045853 | 13 | 239 | 0.0 | 0.0 | 0.00 | 0.03 | 0.03 | 100 | 1013.9 |
| 20260503045348 | 13 | 239 | 0.0 | 0.0 | 0.00 | 0.03 | 0.03 | 100 | 1013.9 |
| 20260503044843 | 13 | 239 | 0.0 | 0.0 | 0.00 | 0.03 | 0.03 | 100 | 1013.9 |
| 20260503044335 | 13 | 239 | 0.0 | 0.0 | 0.00 | 0.03 | 0.03 | 100 | 1013.9 |
| 20260503043829 | 13 | 239 | 0.0 | 0.0 | 0.00 | 0.03 | 0.03 | 100 | 1013.9 |
| 20260503043324 | 13 | 239 | 0.0 | 0.0 | 0.00 | 0.03 | 0.03 | 100 | 1013.9 |
| 20260503042819 | 13 | 239 | 0.0 | 0.0 | 0.00 | 0.03 | 0.03 | 100 | 1013.8 |
| 20260503042313 | 13 | 239 | 0.0 | 0.0 | 0.00 | 0.03 | 0.03 | 100 | 1013.9 |
| 20260503042050 | 13 | 239 | 0.0 | 0.0 | 0.00 | 0.03 | 0.03 | 100 | 1013.7 |
| 20260503041300 | 14 | 239 | 0.0 | 0.0 | 0.00 | 0.03 | 0.03 | 100 | 1013.9 |
| 20260503040753 | 14 | 239 | 0.0 | 0.0 | 0.00 | 0.03 | 0.03 | 100 | 1013.8 |
| 20260503040529 | 14 | 239 | 0.0 | 0.0 | 0.00 | 0.03 | 0.03 | 100 | 1013.8 |
| 20260503035750 | 14 | 239 | 0.0 | 0.0 | 0.00 | 0.03 | 0.03 | 100 | 1013.7 |
| 20260503035235 | 15 | 239 | 0.0 | 0.0 | 0.00 | 0.03 | 0.03 | 100 | 1013.6 |
| 20260503034729 | 15 | 239 | 0.0 | 0.0 | 0.00 | 0.03 | 0.03 | 100 | 1013.6 |
| 20260503034223 | 15 | 239 | 0.0 | 0.0 | 0.00 | 0.03 | 0.03 | 100 | 1013.6 |
| 20260503033717 | 15 | 239 | 0.0 | 0.0 | 0.00 | 0.03 | 0.03 | 100 | 1013.6 |
| 20260503033212 | 15 | 239 | 0.0 | 0.0 | 0.00 | 0.03 | 0.03 | 100 | 1013.7 |
| 20260503032705 | 15 | 229 | 0.0 | 0.0 | 0.00 | 0.03 | 0.03 | 100 | 1013.7 |
| 20260503032203 | 16 | 278 | 0.0 | 0.0 | 0.00 | 0.03 | 0.03 | 100 | 1013.6 |
| 20260503031704 | 16 | 273 | 0.0 | 0.0 | 0.00 | 0.03 | 0.03 | 100 | 1013.5 |
| 20260503031238 | 16 | 273 | 0.0 | 0.0 | 0.00 | 0.03 | 0.03 | 100 | 1013.5 |
| 20260503031224 | 16 | 273 | 0.0 | 0.0 | 0.00 | 0.03 | 0.03 | 100 | 1013.4 |
| 20260503030157 | 16 | 273 | 0.0 | 0.0 | 0.00 | 0.03 | 0.03 | 100 | 1013.5 |
| 20260503025657 | 16 | 273 | 0.0 | 0.0 | 0.00 | 0.03 | 0.03 | 100 | 1013.5 |
| 20260503025232 | 16 | 279 | 0.0 | 0.0 | 0.00 | 0.03 | 0.03 | 100 | 1013.5 |
| 20260503025216 | 16 | 273 | 0.0 | 0.0 | 0.00 | 0.03 | 0.03 | 100 | 1013.6 |
| 20260503024438 | 17 | 279 | 0.0 | 0.0 | 0.00 | 0.03 | 0.03 | 100 | 1013.6 |
| 20260503023659 | 17 | 281 | 0.0 | 0.0 | 0.00 | 0.03 | 0.03 | 100 | 1013.4 |
| 20260503023157 | 17 | 281 | 0.0 | 0.0 | 0.00 | 0.03 | 0.03 | 100 | 1013.4 |
| 20260503022653 | 17 | 281 | 0.0 | 0.0 | 0.00 | 0.03 | 0.03 | 100 | 1013.3 |
| 20260503022154 | 17 | 281 | 0.0 | 0.0 | 0.00 | 0.03 | 0.03 | 100 | 1013.2 |
| 20260503021944 | 17 | 281 | 0.0 | 0.0 | 0.00 | 0.03 | 0.03 | 100 | 1013.0 |
| 20260503021153 | 17 | 281 | 0.0 | 0.0 | 0.00 | 0.03 | 0.03 | 100 | 1013.1 |
| 20260503020655 | 17 | 275 | 0.0 | 0.0 | 0.00 | 0.03 | 0.03 | 100 | 1013.1 |
| 20260503020153 | 17 | 275 | 0.0 | 0.0 | 0.00 | 0.03 | 0.03 | 100 | 1013.1 |
| 20260503015944 | 17 | 320 | 0.0 | 0.0 | 0.00 | 0.03 | 0.03 | 100 | 1013.2 |
| 20260503015434 | 17 | 339 | 0.0 | 0.0 | 0.00 | 0.03 | 0.03 | 100 | 1013.3 |
| 20260503014654 | 18 | 266 | 0.0 | 6.4 | 0.00 | 0.03 | 0.03 | 100 | 1013.2 |
| 20260503014153 | 18 | 283 | 1.6 | 6.4 | 0.00 | 0.03 | 0.03 | 100 | 1013.2 |
| 20260503013941 | 18 | 291 | 1.6 | 6.4 | 0.00 | 0.03 | 0.03 | 100 | 1013.2 |
| 20260503013435 | 18 | 268 | 1.6 | 6.4 | 0.00 | 0.03 | 0.03 | 100 | 1013.3 |
| 20260503012653 | 18 | 283 | 1.6 | 9.7 | 0.00 | 0.03 | 0.03 | 100 | 1013.3 |
| 20260503012154 | 18 | 9 | 1.6 | 9.7 | 0.00 | 0.03 | 0.03 | 100 | 1013.4 |
| 20260503012006 | 18 | 342 | 0.0 | 3.2 | 0.00 | 0.03 | 0.03 | 100 | 1013.5 |
| 20260503011706 | 18 | 347 | 0.0 | 4.8 | 0.00 | 0.03 | 0.03 | 100 | 1013.4 |
| 20260503010658 | 18 | 292 | 0.0 | 0.0 | 0.00 | 0.03 | 0.03 | 100 | 1013.5 |
| 20260503010155 | 18 | 279 | 0.0 | 0.0 | 0.00 | 0.03 | 0.03 | 100 | 1013.6 |
| 20260503005649 | 17 | 321 | 0.0 | 0.0 | 0.00 | 0.03 | 0.03 | 100 | 1013.5 |
| 20260503005138 | 17 | 329 | 0.0 | 0.0 | 0.00 | 0.03 | 0.03 | 100 | 1013.6 |
| 20260503004637 | 17 | 38 | 0.0 | 0.0 | 0.00 | 0.03 | 0.03 | 100 | 1013.5 |
| 20260503004130 | 18 | 322 | 0.0 | 3.2 | 0.00 | 0.03 | 0.03 | 100 | 1013.5 |
| 20260503003626 | 18 | 265 | 1.6 | 4.8 | 0.00 | 0.03 | 0.03 | 100 | 1013.5 |
| 20260503003350 | 18 | 306 | 1.6 | 4.8 | 0.00 | 0.03 | 0.03 | 100 | 1013.4 |
| 20260503002614 | 18 | 313 | 1.6 | 6.4 | 0.00 | 0.03 | 0.03 | 100 | 1013.3 |
| 20260503002111 | 17 | 306 | 1.6 | 6.4 | 0.00 | 0.03 | 0.03 | 100 | 1013.4 |
| 20260503001612 | 17 | 343 | 1.6 | 4.8 | 0.00 | 0.03 | 0.03 | 100 | 1013.5 |
| 20260503001110 | 17 | 13 | 1.6 | 4.8 | 0.00 | 0.03 | 0.03 | 100 | 1013.5 |
| 20260503000611 | 17 | 319 | 1.6 | 4.8 | 0.00 | 0.03 | 0.03 | 100 | 1013.6 |
| 20260503000353 | 17 | 5 | 1.6 | 4.8 | 0.00 | 0.03 | 0.03 | 100 | 1013.6 |
| 20260502235614 | 17 | 298 | 1.6 | 4.8 | 0.00 | 0.03 | 0.03 | 100 | 1013.8 |
| 20260502235109 | 17 | 273 | 1.6 | 8.0 | 0.00 | 0.03 | 0.03 | 100 | 1013.7 |
| 20260502234606 | 16 | 263 | 3.2 | 8.0 | 0.00 | 0.03 | 0.03 | 100 | 1013.9 |
| 20260502234107 | 16 | 33 | 1.6 | 6.4 | 0.00 | 0.03 | 0.03 | 100 | 1013.9 |
| 20260502233613 | 16 | 319 | 3.2 | 11.3 | 0.00 | 0.03 | 0.03 | 100 | 1014.0 |
| 20260502233108 | 16 | 270 | 3.2 | 11.3 | 0.00 | 0.03 | 0.03 | 100 | 1014.1 |
| 20260502232859 | 16 | 215 | 3.2 | 11.3 | 0.00 | 0.03 | 0.03 | 100 | 1014.1 |
| 20260502232107 | 16 | 272 | 3.2 | 11.3 | 0.00 | 0.03 | 0.03 | 100 | 1014.2 |
| 20260502231605 | 16 | 242 | 1.6 | 8.0 | 0.00 | 0.03 | 0.03 | 100 | 1014.2 |
| 20260502231106 | 16 | 319 | 3.2 | 6.4 | 0.00 | 0.03 | 0.03 | 100 | 1014.3 |
| 20260502230605 | 16 | 40 | 1.6 | 6.4 | 0.00 | 0.03 | 0.03 | 100 | 1014.3 |
| 20260502230100 | 16 | 355 | 3.2 | 6.4 | 0.00 | 0.03 | 0.03 | 100 | 1014.2 |
| 20260502225552 | 16 | 302 | 3.2 | 8.0 | 0.00 | 0.03 | 0.03 | 100 | 1014.3 |
| 20260502225046 | 17 | 342 | 3.2 | 8.0 | 0.00 | 0.03 | 0.03 | 100 | 1014.2 |
| 20260502224541 | 17 | 21 | 3.2 | 11.3 | 0.00 | 0.03 | 0.03 | 100 | 1014.3 |
| 20260502224043 | 17 | 257 | 3.2 | 11.3 | 0.00 | 0.03 | 0.03 | 100 | 1014.3 |
| 20260502223528 | 17 | 291 | 3.2 | 11.3 | 0.00 | 0.03 | 0.03 | 100 | 1014.4 |
| 20260502223023 | 17 | 262 | 3.2 | 9.7 | 0.00 | 0.03 | 0.03 | 100 | 1014.4 |
| 20260502222758 | 17 | 263 | 3.2 | 9.7 | 0.00 | 0.03 | 0.03 | 100 | 1014.5 |
| 20260502222011 | 16 | 236 | 4.8 | 12.9 | 0.00 | 0.03 | 0.03 | 100 | 1014.6 |
| 20260502221504 | 17 | 235 | 4.8 | 14.5 | 0.00 | 0.03 | 0.03 | 100 | 1014.7 |
| 20260502220959 | 17 | 317 | 3.2 | 14.5 | 0.00 | 0.03 | 0.03 | 100 | 1014.8 |
| 20260502220453 | 17 | 355 | 3.2 | 8.0 | 0.00 | 0.03 | 0.03 | 100 | 1014.7 |
| 20260502215947 | 17 | 292 | 3.2 | 8.0 | 0.00 | 0.03 | 0.03 | 100 | 1014.8 |
| 20260502215704 | 17 | 298 | 3.2 | 8.0 | 0.00 | 0.03 | 0.03 | 100 | 1014.8 |
| 20260502215209 | 17 | 325 | 3.2 | 8.0 | 0.00 | 0.03 | 0.03 | 100 | 1014.8 |
| 20260502214428 | 16 | 344 | 3.2 | 8.0 | 0.00 | 0.03 | 0.03 | 100 | 1014.9 |
| 20260502214159 | 16 | 266 | 1.6 | 4.8 | 0.00 | 0.03 | 0.03 | 100 | 1014.8 |
| 20260502213711 | 16 | 355 | 1.6 | 6.4 | 0.00 | 0.03 | 0.03 | 100 | 1014.9 |
| 20260502212925 | 15 | 316 | 3.2 | 8.0 | 0.00 | 0.03 | 0.03 | 100 | 1014.9 |
| 20260502212910 | 16 | 292 | 3.2 | 6.4 | 0.00 | 0.03 | 0.03 | 100 | 1014.9 |
| 20260502211935 | 15 | 255 | 3.2 | 12.9 | 0.00 | 0.03 | 0.03 | 100 | 1015.1 |
| 20260502211915 | 15 | 28 | 3.2 | 12.9 | 0.00 | 0.03 | 0.03 | 100 | 1015.0 |
| 20260502211402 | 15 | 255 | 3.2 | 12.9 | 0.00 | 0.03 | 0.03 | 100 | 1015.1 |
| 20260502211130 | 15 | 312 | 3.2 | 6.4 | 0.00 | 0.03 | 0.03 | 100 | 1015.3 |
| 20260502210345 | 14 | 63 | 3.2 | 11.3 | 0.00 | 0.03 | 0.03 | 100 | 1015.3 |
| 20260502205834 | 14 | 269 | 3.2 | 11.3 | 0.03 | 0.03 | 0.03 | 100 | 1015.4 |
| 20260502205617 | 14 | 37 | 1.6 | 8.0 | 0.03 | 0.03 | 0.03 | 100 | 1015.3 |
| 20260502205100 | 14 | 290 | 1.6 | 8.0 | 0.03 | 0.03 | 0.03 | 100 | 1015.4 |
| 20260502204316 | 14 | 286 | 1.6 | 8.0 | 0.03 | 0.03 | 0.03 | 100 | 1015.4 |
| 20260502203841 | 14 | 263 | 1.6 | 4.8 | 0.03 | 0.03 | 0.03 | 100 | 1015.6 |
| 20260502203827 | 14 | 350 | 1.6 | 4.8 | 0.03 | 0.03 | 0.03 | 100 | 1015.4 |
| 20260502202808 | 14 | 285 | 0.0 | 4.8 | 0.03 | 0.03 | 0.03 | 100 | 1015.6 |
| 20260502202252 | 15 | 320 | 1.6 | 4.8 | 0.03 | 0.03 | 0.03 | 100 | 1015.5 |
| 20260502202038 | 15 | 226 | 1.6 | 4.8 | 0.03 | 0.03 | 0.03 | 100 | 1015.6 |
| 20260502201241 | 15 | 211 | 1.6 | 8.0 | 0.03 | 0.03 | 0.03 | 100 | 1015.8 |
| 20260502200734 | 14 | 251 | 0.0 | 8.0 | 0.03 | 0.03 | 0.03 | 100 | 1015.8 |
| 20260502200229 | 14 | 344 | 0.0 | 0.0 | 0.03 | 0.03 | 0.03 | 100 | 1015.7 |
| 20260502195722 | 14 | 344 | 0.0 | 0.0 | 0.00 | 0.00 | 0.00 | 100 | 1015.7 |
| 20260502195216 | 14 | 344 | 0.0 | 3.2 | 0.00 | 0.00 | 0.00 | 100 | 1015.8 |
| 20260502194710 | 14 | 12 | 1.6 | 4.8 | 0.00 | 0.00 | 0.00 | 100 | 1015.9 |
| 20260502194204 | 14 | 15 | 1.6 | 4.8 | 0.00 | 0.00 | 0.00 | 100 | 1016.1 |
| 20260502193700 | 15 | 15 | 1.6 | 4.8 | 0.00 | 0.00 | 0.00 | 100 | 1016.0 |
| 20260502193430 | 15 | 5 | 1.6 | 11.3 | 0.00 | 0.00 | 0.00 | 100 | 1016.3 |
| 20260502192647 | 14 | 276 | 3.2 | 11.3 | 0.00 | 0.00 | 0.00 | 100 | 1016.5 |
| 20260502192140 | 14 | 145 | 3.2 | 6.4 | 0.00 | 0.00 | 0.00 | 100 | 1015.8 |
| 20260502191634 | 14 | 258 | 3.2 | 9.7 | 0.00 | 0.00 | 0.00 | 100 | 1015.8 |
| 20260502191128 | 15 | 279 | 1.6 | 9.7 | 0.00 | 0.00 | 0.00 | 100 | 1016.0 |
| 20260502190622 | 15 | 287 | 3.2 | 6.4 | 0.00 | 0.00 | 0.00 | 100 | 1016.1 |
| 20260502190129 | 15 | 282 | 1.6 | 6.4 | 0.00 | 0.00 | 0.00 | 100 | 1016.2 |
| 20260502185611 | 15 | 284 | 1.6 | 4.8 | 0.00 | 0.00 | 0.00 | 100 | 1016.1 |
| 20260502185104 | 15 | 333 | 0.0 | 3.2 | 0.00 | 0.00 | 0.00 | 100 | 1016.2 |
| 20260502184627 | 15 | 323 | 1.6 | 4.8 | 0.00 | 0.00 | 0.00 | 100 | 1016.3 |
| 20260502184613 | 15 | 333 | 1.6 | 4.8 | 0.00 | 0.00 | 0.00 | 100 | 1016.1 |
| 20260502183547 | 15 | 0 | 1.6 | 6.4 | 0.00 | 0.00 | 0.00 | 100 | 1016.9 |
| 20260502183224 | 14 | 194 | 3.2 | 9.7 | 0.00 | 0.00 | 0.00 | 100 | 1017.1 |
| 20260502183041 | 15 | 295 | 1.6 | 6.4 | 0.00 | 0.00 | 0.00 | 100 | 1016.7 |
| 20260502182751 | 14 | 194 | 3.2 | 9.7 | 0.00 | 0.00 | 0.00 | 100 | 1017.1 |
| 20260502182627 | 15 | 290 | 1.6 | 9.7 | 0.00 | 0.00 | 0.00 | 100 | 1016.9 |